This is the latest recevied weather packets stored in our database for station/object IZ5MJO-13. If no packets are shown the sender has not sent any weather packets the latest 10 day(s).
| Time | Temp. | Humidity | Pressure | Rain* | Wind** | Luminosity | Snow |
|---|---|---|---|---|---|---|---|
| 1787995202 | 26.67° C | 48% | 1006.8 hPa | - | - | - | - |
| 1787994301 | 26.67° C | 50% | 1007 hPa | - | - | - | - |
| 1787993401 | 26.11° C | 51% | 1007 hPa | - | - | - | - |
| 1787992501 | 26.11° C | 52% | 1007 hPa | - | - | - | - |
| 1787991601 | 25.56° C | 53% | 1006.9 hPa | - | - | - | - |
| 1787990701 | 24.44° C | 53% | 1006.8 hPa | - | - | - | - |
| 1787989800 | 25.56° C | 53% | 1006.9 hPa | - | - | - | - |
| 1787988900 | 25° C | 54% | 1006.6 hPa | - | - | - | - |
| 1787988000 | 25° C | 55% | 1006.4 hPa | - | - | - | - |
| 1787987099 | 24.44° C | 56% | 1006.3 hPa | - | - | - | - |
| 1787986199 | 23.89° C | 58% | 1006 hPa | - | - | - | - |
| 1787985299 | 23.33° C | 58% | 1006.1 hPa | - | - | - | - |
| 1787984402 | 23.33° C | 59% | 1006.2 hPa | - | - | - | - |
| 1787983498 | 23.33° C | 59% | 1006.3 hPa | - | - | - | - |
| 1787983035 | 22.78° C | 60% | 1006.5 hPa | - | - | - | - |
| 1787982606 | 22.78° C | 60% | 1006.5 hPa | - | - | - | - |
| 1787981738 | 22.78° C | 60% | 1006.4 hPa | - | - | - | - |
| 1787981706 | 22.78° C | 60% | 1006.4 hPa | - | - | - | - |
| 1787980805 | 22.22° C | 60% | 1006.6 hPa | - | - | - | - |
| 1787979905 | 22.22° C | 60% | 1006.3 hPa | - | - | - | - |
| 1787979902 | 22.22° C | 60% | 1006.1 hPa | - | - | - | - |
| 1787979886 | 22.22° C | 60% | 1005.9 hPa | - | - | - | - |
| 1787979874 | 22.78° C | 59% | 1005.8 hPa | - | - | - | - |
| 1787979865 | 22.78° C | 59% | 1006.2 hPa | - | - | - | - |
| 1787979831 | 22.78° C | 59% | 1006.2 hPa | - | - | - | - |
* Rain since midnight (hover to see other rain measurements)
** Current wind speed in m/s (hover to see current wind gust speed)